Regional Weather Roundup
Issued by NWS Green Bay, WI

Home | Current Version | Previous Version | Graphics & Text | Print | Product List | Glossary Off
Versions: 1 2 3 4 5 6 7 8 9 10 11 12 13 14 15 16 17 18 19 20 21 22 23 24 25 26 27 28 29 30 31 32 33 34 35 36 37 38 39 40 41 42 43 44 45 46 47 48 49 50

000
ASUS43 KGRB 271910
RWRGRB

NORTH-CENTRAL AND NORTHEAST WISCONSIN REGIONAL WEATHER ROUNDUP
NATIONAL WEATHER SERVICE GREEN BAY WI
200 PM CDT SUN JUL 27 2014

WIZ005-009-010>012-018-019-272000-
NORTH CENTRAL WISCONSIN

CITY           SKY/WX    TMP DP  RH WIND       PRES   REMARKS
IRONWOOD       CLOUDY    54  54 100 N9        29.89R
MANITOWISH WTR LGT RAIN  61  59  93 N13G20    29.86R
ARBOR VITAE    PTSUNNY   69  62  76 N13       29.84R
EAGLE RIVER    CLOUDY    65  56  72 NE15      29.83R
LAND O LAKES   RAIN      62  59  90 N14G20    29.86R
RHINELANDER    CLOUDY    66  58  75 NE8       29.83R
PHILLIPS       CLOUDY    63  58  86 N7G16     29.86R
ANTIGO         PTSUNNY   67  60  79 N17G23    29.78R
TOMAHAWK       PTSUNNY   66  59  77 N14       29.82R
MERRILL        LGT RAIN  64  62  90 N8G15     29.80R
$$

WIZ013-073-272000-
NORTHEAST WISCONSIN

CITY           SKY/WX    TMP DP  RH WIND       PRES   REMARKS
IRON MOUNTAIN  CLOUDY    67  56  67 N10G20    29.78R
MARINETTE      CLOUDY    61  57  88 CALM      29.72S THUNDER
OCONTO         CLOUDY    61  61 100 NW6       29.70F
$$

WIZ017-030-035>037-045-272000-
CENTRAL WISCONSIN

CITY           SKY/WX    TMP DP  RH WIND       PRES   REMARKS
MEDFORD        LGT RAIN  67  58  73 NW17      29.82R
WAUSAU         MOSUNNY   72  56  57 N14       29.77R
MOSINEE        PTSUNNY   72  55  56 N17G24    29.80R
MARSHFIELD     MOSUNNY   72  58  61 N16G24    29.80R
WISC RAPIDS    MOSUNNY   73  59  61 MISG      29.79R
STEVENS POINT  PTSUNNY   69  54  57 N14G22    29.78R
WAUPACA        PTSUNNY   76  59  54 NW15      29.74R
SHAWANO        CLOUDY    70  61  72 NW8       29.74R
CLINTONVILLE   PTSUNNY   70  57  64 NW10      29.74R
$$

WIZ038-039-048-051-272000-
FOX VALLEY

CITY           SKY/WX    TMP DP  RH WIND       PRES   REMARKS
NWS GREEN BAY  PTSUNNY   71  59  65 N15G24    29.70S
APPLETON       PTSUNNY   73  55  53 NW16G22   29.71F THUNDER
OSHKOSH        PTSUNNY   76  58  53 NW15G25   29.71S
FOND DU LAC    PTSUNNY   75  62  64 W12       29.72F
$$

WIZ022-050-052-272000-
EAST CENTRAL WISCONSIN

CITY           SKY/WX    TMP DP  RH WIND       PRES   REMARKS
STURGEON BAY   CLOUDY    61  57  88 N16G22    29.72R
MANITOWOC      PTSUNNY   79  58  48 NW13G25   29.69R
SHEBOYGAN      PTSUNNY   72  62  71 W8        29.71R
$$

LMZ563-521-522-541>543-272000-
LAKESHORE

STATION/POSITION TIME  TEMP    WIND        PRES    VSBY  WAVE
                       AIR SEA DIR/SP/G                  HT/PER
                 (UTC) (F)     (DEG/KT/KT) (MB)    (MI)  (FT/S)
SHEBOYGAN LKSHOR 1900   71     240/ 10/ 12 1005.5R
KEWAUNEE LKSHORE 1900   68     330/ 10/ 17 1005.9R
TWO RIVERS CG    1800   78                   N/A       6   1
NORTHPORT PIER   1900   65      30/ 12/ 17 1006.1S
N MID LAKE BUOY  1900   59 56   20/ 17/ 19 1004.7R         1/ 3
CHAMBERS ISLAND  1900   64     280/  4/  9 1007.1R
MENOMINEE LKSHOR 1900   60     340/  6/  7 1007.4R
$$


USA.gov is the U.S. government's official web portal to all federal, state and local government web resources and services.